Wind_Speed
7 7 7 8 8 8 9 9 10 10 11 11 12 12 13 13 14 14 15 15 16 17 17 18 19 19 20 21 22 22 22 22 23 23 24 24 23 23 23 23 24 24 25 25 26 26 26 26 26 24 23 21 19 17 16 17 17 16 17 17 18 18 18 19 19 20 20 20 19
7 7 8 8 8 9 9 10 10 10 11 11 12 13 13 14 14 15 15 15 16 17 18 19 19 20 21 22 22 22 22 22 22 23 23 23 23 22 22 23 23 24 24 25 25 25 26 26 25 24 22 21 20 18 17 16 16 17 17 18 18 17 17 18 18 18 19 19 19
7 8 8 8 8 9 9 10 11 11 12 12 13 13 13 14 14 14 15 16 16 17 18 19 20 21 21 21 21 21 21 21 22 23 23 23 22 22 22 22 23 23 24 24 25 25 26 26 25 23 21 21 21 21 19 18 17 17 18 18 18 17 17 17 17 18 18 18 18
8 8 8 9 9 9 10 11 11 12 13 13 13 13 14 14 14 15 15 16 17 18 18 19 20 21 21 21 21 21 21 21 21 22 22 22 22 22 22 22 22 23 23 23 24 25 26 25 23 21 20 20 21 20 20 20 19 19 19 18 18 17 17 17 17 17 17 17 18
8 8 8 9 9 10 10 11 12 13 13 13 13 14 14 14 14 15 16 17 17 18 19 20 20 20 20 20 21 21 21 21 21 21 21 21 22 22 22 22 22 22 22 22 23 24 25 25 23 21 20 20 20 19 20 21 21 21 20 19 18 17 16 16 17 17 17 17 18
8 8 9 9 10 10 11 11 12 13 13 14 14 14 15 15 15 15 16 17 18 19 19 20 20 20 20 20 21 21 20 20 20 20 20 21 22 22 22 22 22 21 21 22 22 23 24 24 22 20 20 20 20 20 20 21 21 22 21 20 19 18 17 17 17 17 17 17 18
8 9 9 10 10 11 11 12 13 13 14 14 15 15 15 16 16 17 18 18 19 19 19 19 19 19 20 20 21 20 20 20 19 20 20 21 21 22 22 22 22 21 21 21 22 22 22 22 20 19 19 19 19 20 21 21 21 21 21 21 19 18 18 18 18 18 18 18 19
9 9 9 10 11 11 12 12 13 13 14 14 15 16 16 17 17 18 18 18 18 18 18 18 19 20 20 20 20 20 19 19 19 19 19 20 21 21 22 22 22 21 21 21 21 21 21 21 19 19 19 19 19 20 21 21 22 22 21 20 19 17 17 18 18 18 18 18 19
9 9 9 10 11 11 12 12 13 14 14 15 16 16 17 17 17 18 18 18 18 18 18 19 19 20 20 20 20 19 19 19 19 19 19 20 20 21 21 21 21 21 21 21 21 21 21 19 18 18 19 19 20 20 21 22 21 21 21 20 19 18 18 18 17 17 18 18 19
9 9 10 10 11 11 12 12 13 14 15 15 16 16 16 17 17 17 17 17 18 18 18 19 19 20 20 20 19 19 18 18 18 19 19 19 20 20 20 21 21 21 22 22 22 21 20 19 18 19 19 20 20 21 21 21 21 21 20 19 19 19 19 18 18 18 18 18 19
9 10 10 10 11 11 12 13 13 14 14 15 15 16 16 16 16 17 17 17 18 18 19 19 19 19 19 19 19 18 18 18 18 19 19 19 19 19 20 20 20 21 22 22 22 21 19 18 19 20 21 21 21 21 21 21 21 21 21 20 19 19 19 19 18 18 18 18 19
9 10 10 10 11 11 12 13 13 14 14 14 15 15 16 16 16 16 17 17 18 18 18 18 19 19 19 18 18 18 18 18 19 19 19 19 19 19 19 20 20 21 22 22 21 20 19 19 20 21 21 21 21 20 21 22 22 22 21 21 20 19 19 19 19 18 18 18 19
9 10 10 10 11 11 12 13 13 13 14 14 15 15 15 16 16 16 17 17 18 18 18 18 18 18 18 18 18 18 19 19 19 19 19 19 19 19 19 19 20 21 22 22 21 20 20 20 21 21 21 22 21 22 22 22 22 22 21 21 20 20 19 19 19 19 18 18 18
9 10 10 10 11 11 12 12 13 13 13 14 14 15 15 16 16 16 16 17 17 18 18 18 18 18 18 18 19 19 19 19 19 20 20 19 19 18 18 19 20 22 22 22 22 21 21 21 21 21 21 22 23 23 23 23 22 22 22 21 21 20 20 20 20 19 19 18 19
9 10 10 10 11 11 11 12 12 13 13 14 14 15 15 16 16 16 16 17 17 18 18 18 18 18 18 19 19 19 19 19 20 20 20 19 19 19 19 19 21 22 23 23 23 23 22 21 21 21 21 22 23 24 24 24 23 22 22 22 21 21 20 20 20 20 19 19 19
9 9 10 10 10 11 11 12 12 13 13 14 14 15 15 16 16 16 16 17 17 18 18 18 18 19 19 19 19 19 19 19 19 19 20 20 20 20 20 20 21 22 24 24 24 24 23 23 22 22 22 22 23 24 24 24 23 23 22 22 21 21 21 20 20 20 20 20 19
9 9 10 10 10 11 11 12 12 13 14 14 15 15 16 16 16 16 17 17 17 18 18 19 19 19 19 19 19 19 19 19 19 19 20 20 21 21 21 21 21 22 24 25 25 25 25 24 23 23 22 22 22 23 23 24 23 23 22 21 21 21 21 20 20 20 20 20 20
9 9 10 10 10 11 12 12 13 13 14 15 15 16 16 16 16 17 17 17 18 18 19 20 20 20 20 20 20 19 19 19 19 20 20 21 21 21 21 21 22 23 24 25 25 25 25 25 25 24 23 22 21 22 22 22 22 22 21 20 20 20 20 20 20 20 20 20 21
9 9 10 10 11 11 12 12 13 14 14 15 15 16 16 16 17 17 18 18 18 19 19 20 20 20 20 20 20 20 20 19 20 20 21 21 21 21 21 22 22 23 24 25 25 26 26 25 25 25 23 22 21 20 20 20 20 20 20 20 20 20 19 19 19 19 20 20 21
9 9 10 10 11 11 12 13 13 14 14 15 15 16 16 17 17 17 18 18 19 19 19 19 20 20 20 20 20 20 20 20 20 20 21 21 21 21 22 22 23 23 24 25 25 25 25 26 26 25 24 23 21 19 18 18 18 18 19 19 19 19 19 19 19 19 20 21 22
9 10 10 10 11 12 12 13 13 14 14 15 15 16 16 17 17 18 18 18 18 19 19 19 19 20 20 20 20 20 20 20 20 20 20 21 21 22 22 22 23 24 24 25 25 25 25 25 26 26 25 23 19 16 15 15 16 17 18 18 18 18 18 19 19 20 20 21 22
10 10 10 10 11 12 12 13 13 14 14 15 15 16 16 16 17 17 18 18 18 18 18 19 19 19 20 20 20 20 20 20 20 20 20 21 21 22 22 22 23 24 24 24 24 24 24 25 26 26 25 22 18 14 13 14 15 16 17 17 17 18 19 19 19 20 20 21 22
10 10 10 11 11 12 12 13 13 14 14 15 15 15 16 16 17 17 18 18 18 18 18 19 19 19 20 20 20 20 20 20 20 20 21 21 22 22 23 23 23 23 23 23 22 23 23 25 26 26 25 21 17 13 12 13 14 15 16 17 18 18 19 19 19 20 20 21 22
10 10 10 11 11 12 12 13 13 14 14 14 15 15 16 16 17 17 17 18 18 18 18 19 19 20 20 20 20 20 20 20 20 21 21 22 22 22 23 23 23 22 22 22 22 23 23 25 26 26 25 21 16 13 11 12 13 15 16 17 18 19 19 20 20 20 20 21 22
10 10 11 11 12 12 13 13 13 14 14 14 15 15 15 16 16 17 17 17 18 18 18 19 19 20 20 19 19 19 19 19 20 21 21 22 22 22 22 22 22 22 22 23 23 24 24 25 26 27 26 22 16 13 11 12 13 15 16 17 18 19 20 20 20 20 20 21 21
10 11 11 11 12 12 13 13 13 14 14 14 15 15 15 16 16 16 17 17 18 18 19 19 19 19 19 18 18 18 18 19 20 21 21 22 22 23 22 22 22 22 24 25 25 25 25 26 26 27 27 24 17 13 11 11 12 14 16 17 18 19 19 19 20 20 20 20 21
10 11 11 12 12 12 13 13 13 13 14 14 14 15 15 16 16 16 17 17 18 18 18 18 18 18 17 17 18 18 19 19 20 21 21 22 22 23 22 22 22 24 25 25 25 25 25 26 26 26 27 26 20 14 11 11 12 13 15 16 17 18 18 19 19 20 20 20 21
11 11 11 12 12 13 13 13 13 13 14 14 14 15 15 16 16 16 17 17 17 17 17 17 17 16 16 17 17 18 19 20 20 20 21 21 22 22 22 22 23 24 24 25 25 25 25 25 26 26 26 25 21 15 12 10 11 13 15 15 16 16 17 18 20 20 20 20 20
11 11 11 12 12 13 13 13 13 13 14 14 14 15 15 16 16 16 17 17 17 17 17 16 16 16 16 17 18 19 20 20 20 20 20 21 21 22 22 22 23 23 24 25 25 25 25 25 25 26 26 26 22 16 11 9 10 12 14 14 15 16 17 19 20 21 20 19 20
12 11 11 12 13 13 13 13 13 13 13 14 14 15 15 16 16 16 16 17 17 16 16 16 16 17 18 18 19 19 19 19 19 20 20 21 21 22 22 22 23 24 25 25 25 25 25 25 26 26 27 27 23 17 11 9 10 12 13 13 15 16 18 19 21 20 19 18 19
12 12 12 12 13 13 13 13 13 13 13 14 14 15 16 16 16 16 16 16 16 16 16 16 17 17 18 18 19 19 19 19 19 20 20 20 21 22 22 23 24 25 25 25 25 25 25 26 26 27 27 28 24 16 11 10 10 11 12 13 15 17 18 20 20 19 18 17 18
12 12 12 13 13 13 13 13 13 13 14 14 15 15 16 16 16 16 16 16 16 16 17 17 17 18 18 18 18 19 19 19 20 20 20 21 21 22 23 24 24 24 24 24 25 25 26 26 26 27 28 28 23 16 11 11 10 10 11 13 16 17 18 19 19 18 17 16 16
13 12 12 13 13 14 13 13 13 13 14 14 15 15 15 16 16 16 16 16 16 16 16 17 17 18 18 18 18 19 19 19 20 20 21 21 21 22 23 23 24 24 24 25 26 26 26 26 26 27 28 27 23 17 13 11 10 10 11 13 16 17 18 19 18 17 16 15 15
13 13 13 13 13 13 13 13 13 13 14 14 15 15 15 16 16 16 16 16 16 16 16 16 17 17 18 18 18 18 19 19 20 20 21 21 21 22 22 23 23 24 24 25 26 27 26 26 26 27 27 27 23 18 13 11 10 10 11 14 16 17 18 18 18 17 16 15 14
13 13 13 13 13 13 13 13 13 14 14 14 15 15 15 16 16 16 16 16 16 16 16 16 17 17 17 17 18 18 18 19 20 20 21 21 21 21 22 23 23 24 25 26 26 26 26 26 26 27 27 26 22 17 13 11 11 11 12 13 15 17 18 18 18 17 16 15 14
14 13 13 13 13 13 13 13 13 14 14 15 15 15 15 16 16 16 16 16 16 16 16 17 17 17 17 18 18 18 18 18 19 20 21 21 21 21 22 22 23 24 25 25 26 26 26 26 26 27 27 25 21 16 12 11 11 11 11 12 14 16 17 18 17 17 16 16 15
14 13 13 13 13 13 13 13 14 14 14 15 15 15 15 16 16 16 16 15 16 16 16 17 17 17 17 18 18 18 18 18 19 20 20 20 20 20 21 22 23 24 25 26 26 27 27 28 28 28 28 26 22 16 12 11 11 11 11 12 13 15 17 17 17 17 16 16 16
13 13 13 13 13 13 13 13 14 14 15 15 15 15 15 16 16 16 15 15 15 16 17 17 17 17 17 18 18 18 18 18 19 20 20 21 20 21 21 22 23 25 26 26 27 28 29 30 30 30 28 25 22 17 13 12 11 11 10 11 13 15 16 17 16 16 16 16 17
13 13 13 13 13 13 14 14 14 15 15 15 15 15 16 16 16 16 16 15 15 16 17 17 17 18 18 18 18 19 19 19 19 20 20 21 21 21 22 22 24 25 26 26 26 28 29 31 32 32 29 25 23 19 16 12 11 9 10 11 12 14 15 16 16 16 16 17 18
12 12 13 13 13 13 14 14 15 15 15 15 15 15 16 16 16 16 16 16 16 16 17 17 18 18 18 18 18 19 19 19 20 20 20 21 21 22 22 23 23 24 24 24 25 26 28 30 32 32 30 26 24 21 17 12 9 8 9 10 12 14 15 16 16 16 16 17 18
11 12 12 13 13 13 14 14 15 15 15 15 15 15 16 16 16 16 16 16 16 17 17 17 18 18 18 18 18 18 19 20 20 21 21 21 22 22 22 22 23 22 22 22 23 25 26 27 29 30 30 28 26 22 18 11 8 8 9 10 12 13 15 16 16 16 16 17 17
Wind_Direction
287 288 290 290 290 290 289 288 289 290 291 292 294 295 297 298 299 300 301 303 304 306 307 308 309 310 311 313 314 315 316 316 317 318 318 319 320 321 323 325 327 328 329 329 330 330 330 331 330 328 325 325 324 322 321 321 318 314 311 310 307 304 302 300 299 297 296 294 293
286 287 288 288 287 287 288 290 290 290 290 292 293 294 296 297 298 299 301 303 304 306 307 308 309 310 311 313 314 315 316 316 317 317 318 318 319 321 323 325 327 328 330 330 331 331 331 331 331 329 326 325 325 324 322 321 319 317 315 314 311 307 305 305 302 301 300 300 298
285 287 287 287 287 287 289 290 291 291 292 292 293 294 295 295 297 298 300 301 303 305 306 308 309 310 311 312 314 315 315 316 316 316 317 318 319 321 323 325 326 328 329 331 331 332 332 332 332 330 327 325 325 326 325 324 323 320 318 317 315 312 310 308 307 306 304 303 303
285 286 287 286 286 287 288 289 290 291 293 293 293 293 293 294 295 296 298 301 303 305 307 308 309 311 311 312 313 314 315 315 315 316 316 317 319 320 322 324 326 327 328 330 331 332 332 333 332 330 328 326 324 324 326 327 326 324 322 319 317 315 313 310 310 310 308 306 306
284 284 285 286 286 287 287 288 290 292 293 293 293 293 293 294 295 297 299 302 304 306 307 308 309 310 311 312 313 314 314 315 315 315 316 316 318 319 321 323 324 326 327 328 330 331 332 333 332 331 329 327 326 325 325 326 327 326 325 322 319 316 314 311 311 310 310 308 308
284 284 284 284 285 286 287 288 289 291 292 292 292 292 292 294 295 297 299 302 303 305 306 308 309 310 311 312 313 314 314 314 314 315 315 316 317 319 321 322 323 324 325 326 328 330 332 333 332 331 330 328 326 325 324 325 326 326 326 325 323 321 319 317 316 315 314 313 313
284 285 285 285 285 285 286 288 290 291 291 291 291 291 292 294 295 297 298 300 302 304 307 308 309 310 312 313 313 313 313 313 313 314 315 316 317 319 320 321 322 323 324 325 326 328 330 331 331 330 330 329 327 326 325 325 325 325 325 325 324 324 324 324 323 322 320 319 319
285 285 285 285 286 285 286 288 290 291 291 291 291 291 292 294 295 297 299 300 302 304 306 307 309 310 311 312 312 312 311 311 311 313 314 315 317 319 320 321 322 323 323 324 324 326 327 328 328 328 328 327 326 326 325 325 324 324 323 323 322 323 324 324 324 323 322 322 321
284 285 285 286 286 287 288 289 290 291 291 291 291 292 293 294 296 298 299 300 301 303 304 306 308 310 311 311 311 310 310 310 310 311 313 315 317 319 320 322 322 323 323 323 324 324 325 325 325 325 325 325 324 323 323 324 324 323 322 321 321 321 322 322 322 322 321 321 320
281 284 286 287 287 288 290 291 291 291 292 292 292 292 293 295 296 297 299 300 301 302 303 305 307 309 310 310 309 309 308 309 309 310 312 314 316 318 320 321 322 322 323 323 324 324 323 323 322 322 322 322 321 321 321 322 322 322 321 321 320 321 321 322 322 322 322 321 319
280 283 285 286 288 290 291 292 293 293 293 293 293 294 294 295 295 297 298 299 300 301 303 305 307 309 309 309 308 308 307 307 308 309 310 312 314 317 318 320 321 322 322 323 324 323 322 320 320 319 319 320 320 319 319 320 320 320 319 318 318 319 320 321 323 323 322 321 320
280 282 284 286 288 291 293 294 294 293 293 294 295 295 295 295 296 297 298 299 299 300 302 304 306 307 308 308 307 307 307 307 307 308 309 310 312 314 316 318 319 321 322 323 324 323 320 318 317 317 317 317 318 318 318 318 318 318 317 317 317 317 318 319 321 321 321 321 320
280 282 284 286 289 292 293 294 294 294 294 295 296 297 297 297 298 299 299 299 300 300 302 303 305 306 307 307 307 307 307 306 306 306 307 308 310 312 314 316 317 319 321 323 323 322 319 317 316 315 315 315 315 315 316 316 316 315 314 314 315 315 316 317 318 319 320 320 319
280 282 284 286 290 292 294 295 295 295 296 297 298 299 299 299 300 300 300 300 300 300 301 302 303 305 306 307 307 307 307 306 306 306 306 306 308 310 312 313 315 317 318 320 321 320 319 316 315 314 313 312 312 313 314 314 313 312 311 311 310 311 312 314 316 317 318 317 316
280 282 284 287 290 293 294 296 297 296 297 298 300 301 301 301 301 301 300 300 300 300 301 301 302 304 305 306 307 307 307 307 306 305 305 305 307 308 310 311 312 314 316 317 319 319 318 316 315 313 311 309 310 311 313 313 312 311 309 309 308 308 309 312 314 315 315 314 314
279 282 285 287 290 293 295 297 297 298 298 299 300 302 302 302 302 301 301 300 300 300 300 301 302 303 304 306 307 308 308 307 306 305 304 305 306 307 308 308 309 311 313 315 316 316 317 317 316 313 310 307 307 308 310 311 311 311 309 308 306 306 307 309 312 313 314 313 313
278 281 284 287 290 292 294 296 297 298 298 299 301 302 302 302 302 302 301 300 300 300 300 300 301 302 303 305 307 308 308 307 306 305 304 304 305 306 306 307 307 308 310 312 312 313 314 316 316 314 310 306 304 305 307 310 311 311 310 308 305 305 306 308 310 311 312 313 312
278 281 284 286 289 291 293 295 296 297 298 300 301 301 302 302 302 301 301 300 300 299 299 299 300 300 302 303 305 306 307 306 305 304 304 304 304 304 305 305 305 306 307 309 310 310 311 312 313 312 308 303 301 302 306 309 311 311 309 306 305 305 306 308 309 311 312 312 312
279 281 283 286 289 291 293 294 295 296 298 300 301 301 302 302 302 302 302 301 300 300 299 299 299 300 301 302 303 305 306 305 304 304 303 303 304 304 304 305 304 304 305 306 307 308 309 310 311 309 305 299 296 299 304 309 311 310 308 305 304 304 306 308 310 311 311 312 311
278 281 283 286 289 291 293 294 295 297 298 300 301 301 302 303 304 303 303 302 301 301 300 299 299 300 300 301 302 304 304 304 304 303 303 303 303 304 304 305 304 305 304 305 305 306 308 309 310 308 302 295 290 293 302 309 311 309 306 304 303 304 306 308 309 310 311 311 311
276 279 282 285 288 290 292 294 296 297 299 299 301 302 303 304 305 305 304 304 303 303 301 300 300 300 301 301 302 303 304 304 303 302 303 303 304 304 305 305 305 305 305 305 305 305 306 307 309 307 301 292 285 288 300 309 310 307 303 302 302 304 305 306 307 308 309 311 311
275 278 281 284 287 290 292 294 296 297 298 300 301 302 304 305 305 306 306 306 305 305 303 302 301 301 301 301 302 302 302 303 303 303 303 304 304 305 305 305 305 305 305 305 304 304 305 306 308 307 302 292 283 286 299 307 305 301 299 299 301 302 303 303 304 306 308 310 311
274 278 281 284 287 290 292 293 295 296 298 299 301 302 304 305 306 307 308 308 308 307 305 304 303 302 302 301 301 301 301 302 303 303 304 305 305 306 306 306 306 305 304 304 304 304 305 307 308 307 303 295 285 286 297 302 299 296 295 297 298 299 300 300 301 303 306 309 312
273 277 281 284 287 289 291 292 294 295 296 298 300 302 304 306 307 308 309 309 309 308 307 306 304 303 303 302 301 301 301 302 302 303 304 305 306 306 306 306 306 305 304 303 303 304 306 308 309 310 308 300 287 284 293 300 296 294 293 295 296 296 297 298 299 303 307 310 313
274 277 280 282 285 288 289 291 292 294 295 298 300 302 304 306 307 308 309 309 309 309 308 307 306 305 303 301 300 300 301 302 303 303 304 305 306 306 307 307 306 305 303 303 304 306 308 310 311 314 313 307 292 281 285 294 295 295 295 295 295 295 296 298 300 304 308 312 315
273 277 280 282 284 286 288 289 291 293 295 297 300 302 304 306 307 308 308 308 309 310 310 309 308 307 305 303 302 303 303 303 304 304 305 305 306 306 307 307 305 304 304 304 306 308 310 312 313 316 317 314 302 284 275 282 291 297 298 298 296 297 298 300 303 307 311 315 318
272 276 280 283 284 286 287 288 290 292 295 298 300 302 304 305 306 307 307 308 309 310 311 310 309 308 307 306 305 305 305 305 305 305 305 305 306 307 307 307 306 305 305 305 307 310 312 313 315 316 318 319 312 295 276 277 292 301 304 302 301 301 303 306 310 312 315 317 320
271 275 280 283 284 285 286 289 290 293 296 298 301 302 303 305 306 306 307 308 309 311 311 311 311 310 310 309 308 307 306 306 306 306 307 307 308 308 307 307 306 305 305 306 308 311 313 314 315 316 318 320 316 302 284 282 299 309 311 308 307 308 310 313 316 317 317 318 321
270 276 281 283 283 285 286 288 290 293 297 299 301 302 303 304 305 306 307 308 310 311 312 313 312 312 311 310 309 308 308 308 309 309 309 309 308 308 308 307 306 306 305 307 309 311 313 314 314 316 317 318 314 302 286 290 306 314 314 313 312 311 313 316 318 319 318 319 323
271 277 280 280 282 284 286 288 290 293 297 299 301 302 303 304 304 306 307 309 311 312 312 312 312 311 310 310 310 310 310 310 311 311 310 310 309 309 309 308 307 306 306 307 309 311 312 313 314 316 317 318 313 303 291 301 313 316 316 314 311 310 312 317 320 320 319 320 323
271 274 277 279 280 283 284 287 290 293 296 298 300 301 302 303 305 307 309 310 311 311 311 311 310 309 308 309 309 310 310 311 312 311 311 311 310 310 309 309 308 307 307 308 309 311 312 313 314 315 317 317 314 307 301 312 313 312 311 309 306 307 313 319 322 322 320 320 323
270 272 274 276 278 281 283 286 289 292 295 298 299 300 301 303 305 307 309 310 310 310 311 310 310 309 309 309 309 310 311 311 311 311 311 311 311 310 310 310 309 308 308 309 311 312 313 315 315 316 318 319 317 311 307 315 309 305 304 304 303 308 315 321 323 322 320 319 322
267 270 272 274 276 279 282 285 289 292 295 297 299 300 301 303 305 307 308 309 310 310 311 311 311 310 310 310 310 310 310 310 310 310 311 311 311 311 311 311 310 310 310 312 313 315 316 316 317 318 319 320 317 313 308 308 298 297 300 302 306 313 319 323 323 322 319 318 320
265 268 270 272 275 278 281 284 288 291 294 297 298 299 302 304 305 307 308 309 310 310 311 310 310 310 309 309 309 309 309 309 309 310 310 311 311 312 312 313 312 312 313 315 316 317 318 319 319 320 321 321 317 312 304 296 285 288 298 303 311 318 324 326 324 322 320 318 319
265 267 269 271 274 277 281 284 287 291 293 295 297 299 302 304 305 307 308 309 310 310 310 310 310 309 308 308 307 307 307 308 308 309 310 311 312 313 313 313 313 314 316 318 318 318 319 320 321 322 323 323 317 309 298 285 279 285 297 306 315 323 328 329 328 325 322 321 320
263 265 266 269 273 277 280 284 287 290 292 294 296 299 301 304 305 306 308 309 309 310 310 311 311 310 309 309 308 307 307 308 308 309 310 311 312 313 313 313 313 315 316 318 318 318 318 319 320 322 324 324 318 308 292 278 277 285 297 308 318 326 332 333 332 329 327 325 324
261 262 264 268 272 276 280 283 286 289 291 293 295 298 301 303 305 306 307 309 309 310 310 311 311 310 310 309 307 307 306 307 307 308 309 310 310 311 312 312 312 314 315 316 316 317 318 319 318 319 321 323 319 309 290 274 274 283 297 309 319 328 333 334 334 333 331 329 329
259 260 262 265 270 275 278 281 284 286 289 292 294 297 301 303 304 306 307 308 309 309 309 310 310 309 309 308 306 306 305 306 306 307 307 308 308 309 309 310 310 312 314 315 316 318 320 320 319 318 319 321 319 310 292 273 271 281 297 310 320 328 333 335 334 333 332 331 331
254 256 259 263 268 272 276 279 281 284 287 290 293 296 299 301 303 304 305 306 307 307 308 309 309 308 308 308 307 306 305 305 305 305 306 306 306 306 307 307 307 309 311 313 317 320 323 324 324 323 323 323 322 314 298 277 273 285 304 315 323 328 332 334 333 332 331 331 332
251 254 258 262 266 270 274 277 280 283 286 289 292 295 297 300 301 302 303 304 305 306 307 308 308 309 309 309 308 306 305 305 305 305 305 305 305 306 307 306 306 307 309 313 317 322 327 329 331 332 333 333 330 322 309 295 293 307 319 324 327 329 332 333 332 331 330 331 332
247 252 257 261 266 269 272 276 279 282 284 287 290 293 296 298 300 301 302 304 305 306 307 308 308 309 310 309 308 306 305 305 306 306 307 307 308 309 310 309 309 310 312 316 321 326 330 334 338 342 345 345 340 332 325 324 334 339 336 333 332 332 332 332 331 330 330 331 332
Height
877 877 876 876 875 874 874 873 872 872 871 870 869 868 867 866 865 864 863 862 860 859 857 856 855 853 852 851 849 848 847 845 844 843 841 840 838 837 835 834 832 830 828 827 825 822 820 818 816 814 812 810 808 806 805 803 801 800 798 797 795 794 792 791 790 788 787 786 785
877 876 875 875 874 874 873 872 872 871 870 869 868 867 867 865 864 863 862 861 860 858 857 855 854 852 851 850 849 847 846 845 843 842 840 839 837 836 834 833 831 830 828 826 824 822 820 818 816 814 812 810 807 806 804 802 801 799 797 796 795 793 792 790 789 787 786 785 783
876 875 875 874 873 873 872 872 871 870 869 869 868 867 866 865 863 862 861 860 859 857 856 855 853 852 850 849 848 847 845 844 842 841 839 838 837 835 834 832 831 829 827 826 824 822 820 818 816 814 812 810 808 806 804 802 801 799 797 796 794 793 791 790 788 787 785 784 782
875 874 874 873 872 872 872 871 870 869 869 868 867 866 865 864 862 861 860 859 858 857 855 854 852 851 849 848 847 846 844 843 842 840 839 837 836 834 833 831 830 828 827 825 823 821 819 817 816 814 812 810 808 806 804 802 801 799 797 795 794 792 791 789 787 786 785 783 782
874 873 873 872 872 871 871 870 869 868 868 867 866 865 864 863 862 861 859 858 857 856 854 853 852 850 849 847 846 845 843 842 841 839 838 837 835 833 832 831 829 827 826 824 822 821 819 817 815 813 812 810 808 806 804 802 801 799 797 795 794 792 790 789 787 786 784 782 781
873 872 872 871 871 870 870 869 868 867 867 866 865 864 863 862 861 860 858 857 856 855 853 852 851 849 848 847 845 844 842 841 840 839 837 836 834 833 831 830 828 827 825 823 822 820 818 817 815 813 811 810 808 806 804 803 801 799 797 795 794 792 790 789 787 785 784 782 781
872 871 871 870 870 869 869 868 867 867 866 865 864 863 862 861 860 859 858 857 855 854 852 851 850 848 847 846 844 843 842 840 839 838 837 835 833 832 831 829 827 826 824 823 821 819 818 816 814 812 811 809 807 806 804 802 801 799 797 795 794 792 790 789 787 786 784 782 781
871 870 870 869 869 868 867 867 866 866 865 864 863 862 861 860 859 858 857 855 854 853 852 850 849 847 846 845 843 842 841 840 838 837 836 834 833 831 830 828 827 825 823 822 820 818 817 816 814 812 811 809 807 805 803 802 801 799 797 795 794 792 791 789 787 786 784 782 781
870 869 869 868 868 867 867 866 865 865 864 863 862 861 860 859 858 857 856 854 853 852 851 849 848 847 845 844 843 841 840 839 837 836 835 833 832 831 829 827 826 824 822 821 819 818 816 815 813 812 810 808 807 805 803 802 800 798 797 795 793 792 790 789 787 785 784 782 780
869 869 868 867 867 867 866 865 864 863 863 862 861 860 859 858 857 856 855 853 852 851 850 848 847 846 844 843 842 840 839 838 837 835 834 833 832 830 828 827 825 824 822 820 818 817 815 814 812 811 809 808 806 804 802 801 799 798 796 795 793 791 790 788 787 785 783 782 780
868 868 867 867 866 866 865 864 863 862 862 861 860 859 858 857 856 855 853 852 851 850 849 847 846 845 843 842 841 839 838 837 836 834 833 832 831 829 828 826 825 823 821 819 818 816 814 813 812 810 808 807 805 804 802 800 799 797 796 794 792 791 789 787 786 784 783 781 779
867 867 866 866 865 865 864 863 862 861 860 859 858 857 857 856 855 853 852 851 850 849 847 846 845 844 842 841 840 838 837 836 835 833 832 831 830 828 827 826 824 822 821 819 817 816 814 812 811 809 807 806 804 803 801 799 798 796 795 793 792 790 788 787 785 784 782 781 779
866 866 865 865 864 864 863 862 861 860 859 858 857 857 856 855 853 852 851 850 849 848 847 845 844 843 842 840 839 837 836 835 834 832 831 830 829 827 826 825 823 822 820 818 817 815 813 812 810 808 807 805 803 802 800 799 797 796 794 792 791 789 788 786 785 783 782 780 778
866 865 865 864 863 863 862 861 860 859 858 857 857 856 855 853 852 851 850 849 848 847 845 844 843 842 841 839 838 837 835 834 833 832 830 829 828 827 825 824 822 821 819 817 816 814 813 811 809 808 806 804 803 801 799 798 797 795 793 792 790 788 787 785 784 782 781 779 777
865 864 864 863 862 862 861 860 859 858 857 857 856 855 854 852 851 850 849 848 847 846 844 843 842 841 840 838 837 836 834 833 832 830 829 828 827 825 824 823 821 820 818 817 815 813 812 810 809 807 805 804 802 800 798 797 796 794 792 791 789 788 786 785 783 782 780 778 777
864 863 863 862 862 861 860 859 858 857 857 856 855 854 853 852 850 849 848 847 846 844 843 842 841 840 838 837 836 835 833 832 831 829 828 827 825 824 823 822 820 818 817 815 814 812 811 809 807 806 804 803 801 799 797 796 795 793 792 790 789 787 786 784 782 781 779 777 776
863 862 862 861 861 860 859 858 858 857 856 855 854 853 852 851 849 848 847 846 845 843 842 841 840 839 837 836 835 834 832 831 830 828 827 826 824 823 822 820 819 817 816 814 812 811 809 808 806 805 803 802 800 798 797 795 793 792 790 789 788 786 785 783 782 780 778 777 775
862 861 861 860 860 859 858 857 857 856 855 854 853 852 851 850 848 847 846 845 844 842 841 840 839 837 836 835 834 832 831 830 828 827 826 824 823 822 820 819 817 816 815 813 812 810 808 806 805 803 802 800 799 797 796 794 792 791 789 788 787 786 784 783 781 780 778 776 774
861 860 860 859 859 858 857 856 856 855 854 853 852 851 850 848 847 846 845 843 842 841 840 839 837 836 835 834 832 831 830 829 827 826 825 823 822 821 819 818 816 815 813 812 810 808 807 805 803 802 800 799 797 796 795 793 792 790 788 787 786 785 783 782 781 779 777 775 773
860 859 859 858 857 857 856 855 855 854 853 852 851 850 848 847 846 845 844 842 841 840 839 837 836 835 834 832 831 830 829 827 826 825 823 822 821 819 818 817 815 813 812 810 809 807 805 804 802 801 799 797 796 795 794 792 791 789 787 786 785 784 782 781 780 778 776 774 772
859 858 858 857 857 856 855 854 853 853 852 851 850 849 847 847 845 844 843 842 840 839 838 837 835 834 832 831 830 829 827 826 825 823 822 821 819 818 817 815 813 812 810 809 807 806 804 802 801 799 797 796 795 793 792 791 790 788 787 786 784 783 782 780 778 777 775 773 772
858 857 857 856 855 855 854 853 852 852 851 850 849 848 847 845 844 843 842 840 839 838 837 835 834 833 832 830 829 827 826 825 824 822 821 820 818 817 815 814 812 811 809 807 806 804 803 801 799 798 796 794 793 792 791 790 788 787 786 784 783 782 780 779 777 776 774 772 770
857 856 856 855 854 854 853 852 852 851 850 849 848 847 846 844 843 842 841 839 838 837 836 834 833 832 830 829 828 826 825 824 822 821 820 818 817 815 814 812 811 809 807 806 805 803 802 800 798 797 795 793 792 791 790 788 787 786 785 783 782 780 779 777 776 774 772 771 769
856 855 854 854 853 853 852 851 851 850 849 848 847 846 845 843 842 841 840 838 837 836 834 833 832 830 829 828 827 825 824 822 821 820 818 817 816 814 812 811 810 808 806 805 803 802 800 799 797 795 793 791 790 789 788 787 786 785 783 782 780 779 777 776 774 773 772 770 768
854 854 853 853 852 852 851 850 850 849 848 847 846 845 844 842 841 840 839 837 836 835 833 832 831 829 828 827 825 824 823 822 820 818 817 815 814 813 811 810 808 807 805 803 802 801 799 797 795 793 792 790 788 787 786 785 784 783 782 781 779 777 776 774 773 772 771 769 767
853 853 852 852 851 851 850 849 849 848 847 846 845 844 843 842 841 839 838 836 835 834 832 831 829 828 827 826 824 823 822 821 819 817 816 814 812 811 810 808 807 805 803 802 801 799 798 796 794 792 790 789 787 785 784 783 783 782 781 780 778 777 775 773 772 771 769 768 767
852 852 851 851 850 850 849 848 848 847 846 845 844 843 842 841 840 838 837 836 834 833 832 830 829 827 826 825 823 822 821 819 818 817 815 813 812 810 809 807 806 804 802 801 799 798 797 795 793 791 789 787 786 784 783 782 782 781 780 779 777 776 774 773 771 770 768 767 765
851 851 850 850 849 849 848 847 847 846 845 844 843 842 841 840 839 837 836 835 833 832 831 829 828 827 826 824 822 821 820 818 817 815 814 812 811 809 808 806 804 802 801 799 798 797 795 793 792 790 788 786 785 783 782 781 781 780 779 778 777 775 773 772 770 769 767 766 764
850 850 849 849 848 848 847 847 846 845 844 843 842 841 840 839 838 837 835 834 832 831 830 828 827 826 825 823 822 820 819 817 816 814 813 811 810 808 807 805 803 801 799 798 797 795 794 792 790 788 787 785 783 782 780 780 779 779 778 777 776 774 773 771 769 767 766 765 763
849 848 848 848 847 847 846 846 845 844 843 842 841 840 839 838 837 836 834 833 832 831 829 828 827 825 824 822 821 819 818 817 815 813 812 810 808 807 805 804 802 800 798 797 795 794 793 791 789 787 785 784 782 780 779 778 778 778 777 776 775 773 772 770 768 767 765 764 763
848 847 847 847 846 846 845 844 844 843 842 841 840 839 838 837 836 835 833 832 831 830 828 827 826 825 823 822 820 819 817 816 814 812 811 809 807 806 804 802 800 798 797 795 794 793 792 790 788 786 784 783 781 779 778 777 777 776 775 775 773 772 770 768 767 766 764 763 762
847 846 846 846 845 845 844 843 843 842 841 840 839 838 837 836 835 834 832 831 830 829 827 826 825 823 822 821 819 818 817 815 813 812 810 808 807 805 803 801 799 797 796 794 793 792 790 789 787 785 783 782 780 778 777 776 775 775 774 773 772 770 769 767 766 765 763 762 762
845 845 845 844 844 843 843 842 842 841 840 839 838 837 836 835 834 833 832 830 829 828 827 825 824 822 821 820 818 817 816 814 812 811 809 807 806 804 802 800 798 797 795 793 792 791 789 788 786 784 782 780 779 777 776 775 774 773 772 772 771 769 768 767 765 764 763 762 761
844 844 844 843 843 842 842 841 841 840 839 838 837 836 835 834 833 832 831 829 828 827 826 824 823 822 820 819 818 816 815 813 812 810 808 806 805 803 802 800 797 796 794 793 791 790 788 787 785 783 781 780 778 776 775 774 773 772 771 771 769 768 767 766 765 763 762 761 760
843 843 843 842 842 841 841 840 840 839 838 837 836 835 834 833 832 831 830 828 827 826 825 823 822 821 819 818 817 816 814 812 811 809 807 806 804 802 801 799 797 795 794 792 790 788 787 785 783 782 780 778 777 775 774 773 772 771 770 769 768 767 766 765 764 762 761 760 759
842 842 842 841 841 840 840 839 838 838 837 836 835 834 833 832 831 830 829 827 826 825 824 822 821 820 818 817 816 815 813 812 810 808 806 805 803 802 800 798 796 794 792 791 789 787 786 784 782 780 779 777 775 773 772 772 771 770 769 768 767 766 765 764 763 762 761 759 758
841 841 841 840 840 839 839 838 837 837 836 835 834 833 832 831 830 829 828 827 825 824 822 821 820 819 817 816 815 814 812 811 809 807 806 804 803 801 799 797 795 793 792 790 788 787 785 783 781 779 777 776 774 772 771 771 770 769 768 767 766 765 764 763 762 761 760 759 758
840 840 839 839 838 838 837 837 836 836 835 834 833 832 831 830 829 828 827 826 824 823 822 820 819 818 817 815 814 812 811 810 808 807 805 803 802 800 799 797 794 792 791 789 787 786 784 782 780 777 776 774 772 771 770 769 768 768 767 766 765 764 763 762 761 760 759 758 757
838 838 838 838 837 837 836 836 835 834 834 833 832 831 830 829 828 827 826 825 824 822 821 819 818 817 816 814 813 812 810 809 807 806 804 802 801 799 798 796 794 792 790 789 787 786 784 781 778 776 774 772 771 770 768 767 767 767 766 765 764 763 762 762 761 759 758 757 756
837 837 837 837 836 836 835 835 834 833 832 832 831 830 829 828 827 826 825 824 822 822 820 819 817 816 815 814 812 811 809 808 806 805 803 802 800 798 797 795 793 791 790 788 787 786 783 781 778 775 772 771 770 768 767 766 766 766 766 765 764 763 762 761 760 759 758 757 756
836 836 836 836 835 834 834 833 833 832 831 831 830 829 828 827 826 825 824 823 822 821 819 818 816 815 814 813 812 810 808 807 805 804 802 801 799 797 796 794 792 791 790 788 787 785 783 781 778 776 773 771 770 768 766 766 766 766 765 764 763 762 761 760 759 758 757 756 755